Location: Camaret
(48.2753°N, 4.5961°W)
Time: 02:44:31
(UTC+00:00)

Cosmos 1689 Rocket - Pass Details

Date: 29 October 2020
Orbit: 360 x 374 km, 97.5° (Epoch: 01 December)

Event Time Altitude Azimuth Distance (km) Brightness Sun altitude
Exits shadow 18:19:01 - 22° (NNE) 1,490 4.8 -13.0°
Reaches altitude 10° 18:19:20 10° 23° (NNE) 1,357 4.5 -13.1°
Maximum altitude 18:22:09 49° 100° (E) 475 2.1 -13.6°
Drops below altitude 10° 18:24:56 10° 178° (S) 1,342 4.8 -14.0°
Sets 18:26:53 0° 184° (S) 2,183 6.0 -14.3°
